EN

Hourly Weather Palmyra

Today, 7 March, Sunday

Time Temperature Precipitation Wind Pressure Humidity
00:00 +14°C° 0 mm 1 mps 728 mmHg 51%
01:00 +13°C° 0 mm 1 mps 728 mmHg 52%
02:00 +13°C° 0 mm 1 mps 727 mmHg 54%
03:00 +12°C° 0 mm 1 mps 726 mmHg 56%
04:00 +12°C° 0 mm 1 mps 726 mmHg 57%
05:00 +12°C° 0 mm 1 mps 726 mmHg 58%
06:00 +11°C° 0 mm 1 mps 726 mmHg 59%
07:00 +13°C° 0 mm 1 mps 727 mmHg 54%
08:00 +14°C° 0 mm 1 mps 727 mmHg 50%
09:00 +15°C° 0 mm 1 mps 727 mmHg 44%
10:00 +16°C° 0 mm 1 mps 727 mmHg 41%
11:00 +18°C° 0 mm 1 mps 727 mmHg 37%
12:00 +19°C° 0 mm 1 mps 726 mmHg 33%
13:00 +19°C° 0 mm 1 mps 726 mmHg 31%
14:00 +20°C° 0 mm 1 mps 725 mmHg 28%
15:00 +20°C° 0 mm 1 mps 724 mmHg 26%
16:00 +20°C° 0 mm 1 mps 724 mmHg 28%
17:00 +19°C° 0 mm 1 mps 724 mmHg 30%
18:00 +19°C° 0 mm 1 mps 724 mmHg 33%
19:00 +17°C° 0 mm 2 mps 724 mmHg 36%
20:00 +16°C° 0 mm 3 mps 724 mmHg 40%
21:00 +14°C° 0 mm 4 mps 724 mmHg 43%
22:00 +13°C° 0 mm 4 mps 724 mmHg 48%
23:00 +12°C° 0 mm 4 mps 724 mmHg 53%

Tomorrow, 8 March, Monday

Time Temperature Precipitation Wind Pressure Humidity
00:00 +11°C° 0 mm 4 mps 724 mmHg 58%
01:00 +11°C° 0 mm 4 mps 724 mmHg 63%
02:00 +11°C° 0 mm 4 mps 724 mmHg 68%
03:00 +10°C° 0 mm 4 mps 723 mmHg 73%
04:00 +10°C° 0 mm 4 mps 723 mmHg 76%
05:00 +10°C° 0 mm 4 mps 724 mmHg 79%
06:00 +10°C° 0 mm 3 mps 724 mmHg 81%
07:00 +10°C° 0 mm 4 mps 724 mmHg 77%
08:00 +11°C° 0 mm 4 mps 724 mmHg 74%
09:00 +12°C° 0 mm 5 mps 724 mmHg 70%
10:00 +13°C° 0 mm 5 mps 724 mmHg 62%
11:00 +15°C° 0 mm 5 mps 724 mmHg 55%
12:00 +16°C° 0 mm 6 mps 724 mmHg 48%
13:00 +16°C° 0 mm 5 mps 723 mmHg 45%
14:00 +17°C° 0 mm 5 mps 723 mmHg 41%
15:00 +19°C° 0 mm 5 mps 722 mmHg 38%
16:00 +17°C° 0 mm 5 mps 722 mmHg 42%
17:00 +17°C° 0 mm 6 mps 722 mmHg 45%
18:00 +16°C° 0 mm 6 mps 722 mmHg 49%
19:00 +15°C° 0 mm 6 mps 723 mmHg 54%
20:00 +14°C° 0 mm 6 mps 723 mmHg 59%
21:00 +13°C° 0 mm 6 mps 724 mmHg 64%
22:00 +12°C° 0 mm 5 mps 724 mmHg 65%
23:00 +12°C° 0 mm 5 mps 724 mmHg 66%

Day after tomorrow, 9 March, Tuesday

Time Temperature Precipitation Wind Pressure Humidity
00:00 +10°C° 0 mm 5 mps 724 mmHg 67%
01:00 +11°C° 0 mm 4 mps 724 mmHg 69%
02:00 +11°C° 0 mm 4 mps 724 mmHg 71%
03:00 +10°C° 0 mm 4 mps 724 mmHg 73%
04:00 +10°C° 0 mm 4 mps 724 mmHg 74%
05:00 +10°C° 0 mm 4 mps 724 mmHg 76%
06:00 +8°C° 0 mm 4 mps 724 mmHg 77%
07:00 +10°C° 0 mm 4 mps 725 mmHg 74%
08:00 +10°C° 0 mm 5 mps 725 mmHg 70%
09:00 +12°C° 0 mm 5 mps 726 mmHg 67%
10:00 +13°C° 0 mm 4 mps 726 mmHg 61%
11:00 +14°C° 0 mm 4 mps 726 mmHg 55%
12:00 +15°C° 0 mm 4 mps 726 mmHg 48%
13:00 +17°C° 0 mm 3 mps 725 mmHg 46%
14:00 +17°C° 0 mm 2 mps 725 mmHg 43%
15:00 +18°C° 0 mm 2 mps 725 mmHg 40%
16:00 +18°C° 0 mm 2 mps 725 mmHg 41%
17:00 +17°C° 0 mm 2 mps 725 mmHg 41%
18:00 +17°C° 0 mm 2 mps 725 mmHg 42%
19:00 +17°C° 0 mm 2 mps 725 mmHg 45%
20:00 +16°C° 0 mm 2 mps 726 mmHg 48%
21:00 +16°C° 0 mm 1 mps 726 mmHg 50%
22:00 +15°C° 0 mm 1 mps 726 mmHg 52%
23:00 +15°C° 0 mm 2 mps 726 mmHg 54%

10 March, Wednesday

Time Temperature Precipitation Wind Pressure Humidity
00:00 +14°C° 0 mm 2 mps 726 mmHg 55%
01:00 +14°C° 0 mm 1 mps 725 mmHg 58%
02:00 +13°C° 0 mm 1 mps 725 mmHg 61%
03:00 +13°C° 0 mm 1 mps 725 mmHg 64%
04:00 +12°C° 0 mm 1 mps 725 mmHg 65%
05:00 +11°C° 0 mm 0 mps 725 mmHg 67%
06:00 +10°C° 0 mm 0 mps 725 mmHg 69%
07:00 +13°C° 0 mm 1 mps 725 mmHg 64%
08:00 +14°C° 0 mm 1 mps 726 mmHg 58%
09:00 +15°C° 0 mm 2 mps 726 mmHg 53%
10:00 +16°C° 0 mm 2 mps 726 mmHg 49%
11:00 +17°C° 0 mm 3 mps 725 mmHg 45%
12:00 +18°C° 0 mm 3 mps 725 mmHg 41%
13:00 +19°C° 0 mm 3 mps 724 mmHg 38%
14:00 +21°C° 0 mm 3 mps 723 mmHg 34%
15:00 +22°C° 0 mm 3 mps 722 mmHg 31%
16:00 +22°C° 0 mm 4 mps 722 mmHg 32%
17:00 +22°C° 0 mm 4 mps 721 mmHg 32%
18:00 +22°C° 0 mm 4 mps 720 mmHg 33%
19:00 +20°C° 0 mm 4 mps 720 mmHg 36%
20:00 +19°C° 0 mm 5 mps 719 mmHg 38%
21:00 +17°C° 0 mm 5 mps 719 mmHg 40%
22:00 +18°C° 0 mm 4 mps 719 mmHg 43%
23:00 +17°C° 0 mm 3 mps 718 mmHg 46%

11 March, Thursday

Time Temperature Precipitation Wind Pressure Humidity
00:00 +16°C° 0 mm 3 mps 718 mmHg 48%
01:00 +16°C° 0 mm 3 mps 717 mmHg 50%
02:00 +14°C° 0 mm 3 mps 717 mmHg 52%
03:00 +14°C° 0 mm 4 mps 717 mmHg 54%
04:00 +14°C° 0 mm 5 mps 717 mmHg 59%
05:00 +13°C° 0 mm 6 mps 717 mmHg 64%
06:00 +12°C° 0 mm 8 mps 717 mmHg 69%
07:00 +12°C° 0 mm 8 mps 717 mmHg 69%
08:00 +13°C° 0 mm 9 mps 718 mmHg 68%
09:00 +14°C° 0 mm 10 mps 718 mmHg 68%
10:00 +16°C° 0 mm 11 mps 718 mmHg 61%
11:00 +17°C° 0 mm 11 mps 718 mmHg 54%
12:00 +18°C° 0 mm 11 mps 718 mmHg 47%
13:00 +19°C° 0 mm 11 mps 717 mmHg 45%
14:00 +19°C° 0 mm 11 mps 717 mmHg 42%
15:00 +21°C° 0 mm 11 mps 717 mmHg 40%
16:00 +19°C° 0 mm 11 mps 716 mmHg 40%
17:00 +18°C° 0 mm 11 mps 716 mmHg 40%
18:00 +17°C° 0 mm 11 mps 716 mmHg 40%
19:00 +16°C° 0 mm 11 mps 716 mmHg 45%
20:00 +14°C° 0 mm 11 mps 716 mmHg 50%
21:00 +13°C° 0 mm 10 mps 716 mmHg 55%
22:00 +12°C° 0 mm 11 mps 716 mmHg 58%
23:00 +12°C° 0 mm 12 mps 716 mmHg 60%

12 March, Friday

Time Temperature Precipitation Wind Pressure Humidity
00:00 +10°C° 0 mm 12 mps 715 mmHg 63%
01:00 +9°C° 0.2 mm 12 mps 715 mmHg 67%
02:00 +8°C° 0.2 mm 11 mps 715 mmHg 70%
03:00 +6°C° 0.2 mm 11 mps 715 mmHg 74%
04:00 +5°C° 0.1 mm 12 mps 716 mmHg 65%
05:00 +4°C° 0.1 mm 13 mps 717 mmHg 57%
06:00 +4°C° 0.1 mm 14 mps 718 mmHg 48%
07:00 +2°C° 0 mm 15 mps 719 mmHg 42%
08:00 +2°C° 0 mm 16 mps 720 mmHg 36%
09:00 +1°C° 0 mm 17 mps 721 mmHg 30%
10:00 +2°C° 0 mm 17 mps 722 mmHg 28%
11:00 +4°C° 0 mm 16 mps 722 mmHg 26%
12:00 +5°C° 0 mm 16 mps 722 mmHg 24%
13:00 +6°C° 0 mm 15 mps 722 mmHg 23%
14:00 +8°C° 0 mm 13 mps 722 mmHg 22%
15:00 +9°C° 0 mm 12 mps 722 mmHg 22%
16:00 +9°C° 0 mm 11 mps 723 mmHg 25%
17:00 +9°C° 0 mm 10 mps 723 mmHg 29%
18:00 +9°C° 0 mm 10 mps 724 mmHg 33%
19:00 +9°C° 0 mm 8 mps 724 mmHg 37%
20:00 +8°C° 0 mm 7 mps 725 mmHg 40%
21:00 +7°C° 0 mm 6 mps 725 mmHg 44%
22:00 +6°C° 0 mm 5 mps 726 mmHg 45%
23:00 +6°C° 0 mm 4 mps 726 mmHg 46%
Show more

We Need Your Consent

Meteoprog and our Service Providers may store and access personal data such as cookies, device identifiers or other similar technologies on your device and process such data to personalise content and ads, as well as provide social media features and to analyse the traffic.

  • Store and/or access information on your device

    Cookies, device identifiers or other information can be stored or accessed on your device for the purposes indicated above.

  • Personalised ads and content, ad and content measurement, audience insights, and products development

    Ads and content can be personalised based on a profile. More data can be added to better personalise ads and content. Ad and content performance can be measured. Insights about the audience who saw the ads and content can be derived. Such data can be used to develop or improve user’s experience, systems and software.

By clicking ‘I Agree’ you will allow the use of indicated cookies, device identifiers, web beacons or other similar technologies. Your settings can be changed in the browser on your device.

For certain purposes, legitimate interests may be relied on, rather than consent. You can read more about this in our Privacy and Cookie Policy.